Flag for Nicaragua Weather past 2 weeks in Managua, Nicaragua

Now
86 °F

Passing clouds.


Feels Like: 92 °F
Forecast: 77 / 97 °F
Wind: 12 mph from Southeast

Location: Managua A. C. Sandino

Current Time: May 4, 2015 at 6:19:46 PM

Latest Report: May 4, 2015 at 6:00 PM


Visibility: N/A

Pressure: 29.77 "Hg

Humidity: 62%

Dew point: 72 °F

Location of ManaguaLocation

Historic Weather in Managua — Graph

°F

Managua temperature yesterday

Maximum temperature yesterday: 93 °F (at 3:00 PM)
Minimum temperature yesterday: 77 °F (at 12:00 AM)
Average temperature yesterday: 85 °F

Past Weeks' High & Low Weather Summary

 TemperatureHumidityPressure
High99 °F (Apr 22, 2:00 PM)94% (May 1, 1:00 AM)29.89 "Hg (May 1, 1:00 AM)
Low75 °F (Apr 24, 6:00 AM)29% (Apr 24, 3:00 PM)29.62 "Hg (Apr 28, 3:00 PM)
Average87 °F61%29.79 "Hg
* Reported Apr 19 4:00 PM — May 4 4:00 PM, Managua, Weather by CustomWeather, © 2015

Note: Actual official high and low records may vary slightly from our data, if they occured in-between our weather recording intervals... More about our weather records

Advertising

Managua weather history for previous 24 hours

 ConditionsComfort  
Time TempWeatherWind HumidityBarometerVisibility
4:00 PM
Mon, May 4
95 °FPassing clouds.14 mph41%29.71 "HgN/A
3:00 PM95 °FPassing clouds.14 mph41%29.74 "HgN/A
2:00 PM95 °FPassing clouds.12 mph41%29.74 "HgN/A
1:00 PM95 °FPassing clouds.14 mph41%29.77 "HgN/A
12:00 PM93 °FPassing clouds.14 mph44%29.83 "HgN/A
11:00 AM91 °FPassing clouds.14 mph46%29.86 "HgN/A
10:00 AM90 °FScattered clouds.7 mph49%29.86 "HgN/A
9:00 AM88 °FScattered clouds.5 mph55%29.86 "HgN/A
8:00 AM84 °FPassing clouds.12 mph62%29.86 "HgN/A
7:00 AM82 °FPassing clouds.12 mph66%29.86 "Hg6 mi
6:45 AM77 °FWarm.12 mph83%29.86 "HgN/A
5:45 AM79 °FWarm.No wind79%29.83 "HgN/A
4:00 AM79 °FPassing clouds.7 mph79%29.80 "HgN/A
1:00 AM82 °FPassing clouds.7 mph70%29.83 "HgN/A
11:00 PM
Sun, May 3
84 °FPassing clouds.12 mph66%29.86 "HgN/A
10:00 PM84 °FPassing clouds.7 mph70%29.86 "HgN/A
9:00 PM84 °FPassing clouds.7 mph70%29.83 "HgN/A
8:00 PM84 °FPassing clouds.7 mph66%29.80 "HgN/A
7:00 PM86 °FPassing clouds.5 mph62%29.77 "HgN/A
6:00 PM90 °FPassing clouds.7 mph52%29.74 "HgN/A
Weather by CustomWeather, © 2015

See weather overviewHow to use our weather pages